Time,TemperatureF,DewpointF,PressureIn,WindDirection,WindDirectionDegrees,WindSpeedMPH,WindSpeedGustMPH,Humidity,HourlyPrecipIn,Conditions,Clouds,dailyrainin,SoftwareType,DateUTC
2013-06-13 00:01:00,61.9,42.5,29.03,NNE,16,0.0,0.0,49,0.00,,---,0.00,VWS V14.01,2013-06-13 04:01:00,
2013-06-13 00:03:00,61.9,42.5,29.03,NNE,16,0.0,0.0,49,0.00,,---,0.00,VWS V14.01,2013-06-13 04:03:00,
2013-06-13 00:04:00,61.9,42.0,29.03,NNE,16,0.0,0.0,48,0.00,,---,0.00,VWS V14.01,2013-06-13 04:04:00,
2013-06-13 00:09:00,62.1,42.2,29.03,NNE,16,0.0,0.0,48,0.00,,---,0.00,VWS V14.01,2013-06-13 04:09:00,
2013-06-13 00:12:00,61.9,41.5,29.03,NNE,16,0.0,0.0,47,0.00,,---,0.00,VWS V14.01,2013-06-13 04:12:00,
2013-06-13 00:17:00,61.9,41.5,29.03,NNE,16,0.0,0.0,47,0.00,,---,0.00,VWS V14.01,2013-06-13 04:17:00,
2013-06-13 00:19:00,61.7,41.3,29.03,NNE,16,0.0,0.0,47,0.00,,---,0.00,VWS V14.01,2013-06-13 04:19:00,
2013-06-13 00:24:00,61.3,41.0,29.03,NNE,16,0.0,0.0,47,0.00,,---,0.00,VWS V14.01,2013-06-13 04:24:00,
2013-06-13 00:29:00,61.0,41.7,29.03,NNE,16,0.0,0.0,49,0.00,,---,0.00,VWS V14.01,2013-06-13 04:29:00,
2013-06-13 00:34:00,60.8,42.6,29.00,NNE,16,0.0,0.0,51,0.00,,---,0.00,VWS V14.01,2013-06-13 04:34:00,
2013-06-13 00:39:00,60.6,42.4,29.00,NNE,16,0.0,0.0,51,0.00,,---,0.00,VWS V14.01,2013-06-13 04:39:00,
2013-06-13 00:44:00,60.4,42.2,29.00,NNE,16,0.0,0.0,51,0.00,,---,0.00,VWS V14.01,2013-06-13 04:44:00,
2013-06-13 00:49:00,60.1,42.4,29.03,NNE,16,0.0,0.0,52,0.00,,---,0.00,VWS V14.01,2013-06-13 04:49:00,
2013-06-13 00:54:00,60.1,42.9,29.03,NNE,16,0.0,0.0,53,0.00,,---,0.00,VWS V14.01,2013-06-13 04:54:00,
2013-06-13 00:59:00,60.1,43.4,29.03,NNE,16,0.0,0.0,54,0.00,,---,0.00,VWS V14.01,2013-06-13 04:59:00,
2013-06-13 01:04:00,59.9,43.2,29.03,NNE,16,0.0,0.0,54,0.00,,---,0.00,VWS V14.01,2013-06-13 05:04:00,
2013-06-13 01:09:00,59.7,43.5,29.03,NNE,16,0.0,0.0,55,0.00,,---,0.00,VWS V14.01,2013-06-13 05:09:00,
2013-06-13 01:14:00,59.9,43.7,29.03,NNE,16,0.0,0.0,55,0.00,,---,0.00,VWS V14.01,2013-06-13 05:14:00,
2013-06-13 01:19:00,60.1,44.3,29.03,NNE,16,0.0,0.0,56,0.00,,---,0.00,VWS V14.01,2013-06-13 05:19:00,
2013-06-13 01:24:00,59.9,44.2,29.03,NNE,16,0.0,0.0,56,0.00,,---,0.00,VWS V14.01,2013-06-13 05:24:00,
2013-06-13 01:29:00,59.7,44.0,29.03,NNE,16,0.0,0.0,56,0.00,,---,0.00,VWS V14.01,2013-06-13 05:29:00,
2013-06-13 01:34:00,59.4,44.1,29.00,NNE,16,0.0,0.0,57,0.00,,---,0.00,VWS V14.01,2013-06-13 05:34:00,
2013-06-13 01:39:00,59.0,43.8,29.00,NNE,16,0.0,0.0,57,0.00,,---,0.00,VWS V14.01,2013-06-13 05:39:00,
2013-06-13 01:44:00,58.8,44.1,29.00,NNE,16,0.0,0.0,58,0.00,,---,0.00,VWS V14.01,2013-06-13 05:44:00,
2013-06-13 01:49:00,58.8,44.5,29.00,NNE,16,0.0,0.0,59,0.00,,---,0.00,VWS V14.01,2013-06-13 05:49:00,
2013-06-13 01:54:00,58.8,45.0,29.00,NNE,16,0.0,0.0,60,0.00,,---,0.00,VWS V14.01,2013-06-13 05:54:00,
2013-06-13 01:59:00,59.0,46.0,29.00,NNE,16,0.0,0.0,62,0.00,,---,0.00,VWS V14.01,2013-06-13 05:59:00,
2013-06-13 02:04:00,59.0,46.4,29.00,NNE,16,0.0,0.0,63,0.00,,---,0.00,VWS V14.01,2013-06-13 06:04:00,
2013-06-13 02:09:00,58.8,46.7,29.00,NNE,16,0.0,0.0,64,0.00,,---,0.00,VWS V14.01,2013-06-13 06:09:00,
2013-06-13 02:14:00,58.6,46.5,29.00,NNE,16,0.0,0.0,64,0.00,,---,0.00,VWS V14.01,2013-06-13 06:14:00,
2013-06-13 02:19:00,58.5,46.3,29.00,NNE,16,0.0,0.0,64,0.00,,---,0.00,VWS V14.01,2013-06-13 06:19:00,
2013-06-13 02:24:00,58.3,46.2,29.00,NNE,16,0.0,0.0,64,0.00,,---,0.00,VWS V14.01,2013-06-13 06:24:00,
2013-06-13 02:29:00,58.1,46.0,29.00,NNE,16,0.0,0.0,64,0.00,,---,0.00,VWS V14.01,2013-06-13 06:29:00,
2013-06-13 02:34:00,58.1,46.4,29.00,NNE,16,0.0,0.0,65,0.00,,---,0.00,VWS V14.01,2013-06-13 06:34:00,
2013-06-13 02:39:00,57.9,47.0,29.00,NNE,16,0.0,0.0,67,0.00,,---,0.00,VWS V14.01,2013-06-13 06:39:00,
2013-06-13 02:44:00,57.9,47.0,29.00,NNE,16,0.0,0.0,67,0.00,,---,0.00,VWS V14.01,2013-06-13 06:44:00,
2013-06-13 02:49:00,57.7,46.9,29.00,NNE,16,0.0,0.0,67,0.00,,---,0.00,VWS V14.01,2013-06-13 06:49:00,
2013-06-13 02:54:00,57.7,47.3,29.00,NNE,16,0.0,0.0,68,0.00,,---,0.00,VWS V14.01,2013-06-13 06:54:00,
2013-06-13 02:59:00,57.7,47.3,29.00,NNE,16,0.0,0.0,68,0.00,,---,0.00,VWS V14.01,2013-06-13 06:59:00,
2013-06-13 03:04:00,57.6,47.5,29.00,NNE,16,0.0,0.0,69,0.00,,---,0.00,VWS V14.01,2013-06-13 07:04:00,
2013-06-13 03:09:00,57.6,47.5,29.00,NNE,16,0.0,0.0,69,0.00,,---,0.00,VWS V14.01,2013-06-13 07:09:00,
2013-06-13 03:14:00,57.6,47.5,29.00,NNE,16,0.0,0.0,69,0.00,,---,0.00,VWS V14.01,2013-06-13 07:14:00,
2013-06-13 03:19:00,57.4,47.3,29.00,NNE,16,0.0,0.0,69,0.00,,---,0.00,VWS V14.01,2013-06-13 07:19:00,
2013-06-13 03:24:00,57.6,47.9,29.00,NNE,16,0.0,0.0,70,0.00,,---,0.00,VWS V14.01,2013-06-13 07:24:00,
2013-06-13 03:29:00,57.7,48.4,29.00,NNE,16,0.0,0.0,71,0.00,,---,0.00,VWS V14.01,2013-06-13 07:29:00,
2013-06-13 03:34:00,57.7,48.4,29.00,NNE,16,0.0,0.0,71,0.00,,---,0.00,VWS V14.01,2013-06-13 07:34:00,
2013-06-13 03:39:00,57.7,48.4,29.00,NNE,16,0.0,0.0,71,0.00,,---,0.00,VWS V14.01,2013-06-13 07:39:00,
2013-06-13 03:44:00,57.6,48.6,29.00,NNE,16,0.0,0.0,72,0.00,,---,0.00,VWS V14.01,2013-06-13 07:44:00,
2013-06-13 03:49:00,57.6,48.6,29.00,NNE,16,0.0,0.0,72,0.00,,---,0.00,VWS V14.01,2013-06-13 07:49:00,
2013-06-13 03:54:00,57.4,48.4,29.00,NNE,16,0.0,0.0,72,0.00,,---,0.00,VWS V14.01,2013-06-13 07:54:00,
2013-06-13 03:59:00,57.2,48.3,29.00,NNE,16,0.0,0.0,72,0.00,,---,0.00,VWS V14.01,2013-06-13 07:59:00,
2013-06-13 04:04:00,57.2,48.3,29.00,NNE,16,0.0,0.0,72,0.00,,---,0.00,VWS V14.01,2013-06-13 08:04:00,
2013-06-13 04:09:00,57.2,48.6,29.00,NNE,16,0.0,0.0,73,0.00,,---,0.00,VWS V14.01,2013-06-13 08:09:00,
2013-06-13 04:14:00,57.2,48.6,29.00,NNE,16,0.0,0.0,73,0.00,,---,0.00,VWS V14.01,2013-06-13 08:14:00,
2013-06-13 04:19:00,57.2,49.0,29.00,NNE,16,0.0,0.0,74,0.00,,---,0.00,VWS V14.01,2013-06-13 08:19:00,
2013-06-13 04:24:00,57.2,49.0,29.00,NNE,16,0.0,0.0,74,0.00,,---,0.00,VWS V14.01,2013-06-13 08:24:00,
2013-06-13 04:29:00,57.0,48.8,29.00,NNE,16,0.0,0.0,74,0.00,,---,0.00,VWS V14.01,2013-06-13 08:29:00,
2013-06-13 04:34:00,57.2,49.0,29.00,NNE,16,0.0,0.0,74,0.00,,---,0.00,VWS V14.01,2013-06-13 08:34:00,
2013-06-13 04:39:00,57.0,48.8,29.00,NNE,16,0.0,0.0,74,0.00,,---,0.00,VWS V14.01,2013-06-13 08:39:00,
2013-06-13 04:44:00,57.0,49.2,29.00,NNE,16,0.0,0.0,75,0.00,,---,0.00,VWS V14.01,2013-06-13 08:44:00,
2013-06-13 04:49:00,57.0,49.2,28.97,NNE,16,0.0,0.0,75,0.00,,---,0.00,VWS V14.01,2013-06-13 08:49:00,
2013-06-13 04:54:00,57.0,49.2,28.97,NNE,16,0.0,0.0,75,0.00,,---,0.00,VWS V14.01,2013-06-13 08:54:00,
2013-06-13 04:59:00,57.0,49.2,28.97,NNE,16,0.0,0.0,75,0.00,,---,0.00,VWS V14.01,2013-06-13 08:59:00,
2013-06-13 05:04:00,57.2,49.7,28.97,East,90,0.0,0.0,76,0.00,,---,0.00,VWS V14.01,2013-06-13 09:04:00,
2013-06-13 05:09:00,57.4,50.6,28.97,East,90,0.0,0.0,78,0.00,,---,0.00,VWS V14.01,2013-06-13 09:09:00,
2013-06-13 05:14:00,57.4,50.6,28.97,East,90,0.0,0.0,78,0.00,,---,0.00,VWS V14.01,2013-06-13 09:14:00,
2013-06-13 05:19:00,57.4,50.6,28.97,East,90,0.0,0.0,78,0.00,,---,0.00,VWS V14.01,2013-06-13 09:19:00,
2013-06-13 05:24:00,57.4,50.6,28.97,East,90,0.0,0.0,78,0.00,,---,0.00,VWS V14.01,2013-06-13 09:24:00,
2013-06-13 05:29:00,57.6,51.1,28.97,East,90,0.0,0.0,79,0.00,,---,0.00,VWS V14.01,2013-06-13 09:29:00,
2013-06-13 05:34:00,57.7,51.3,29.00,East,90,0.0,0.0,79,0.00,,---,0.00,VWS V14.01,2013-06-13 09:34:00,
2013-06-13 05:39:00,57.9,51.5,29.00,East,90,0.0,0.0,79,0.00,,---,0.00,VWS V14.01,2013-06-13 09:39:00,
2013-06-13 05:44:00,57.9,51.5,29.00,East,90,0.0,0.0,79,0.00,,---,0.00,VWS V14.01,2013-06-13 09:44:00,
2013-06-13 05:49:00,57.9,51.5,29.00,East,90,0.0,0.0,79,0.00,,---,0.00,VWS V14.01,2013-06-13 09:49:00,
2013-06-13 05:54:00,57.9,51.5,29.00,East,90,0.0,0.0,79,0.00,,---,0.00,VWS V14.01,2013-06-13 09:54:00,
2013-06-13 05:59:00,57.9,51.5,29.00,East,90,0.0,0.0,79,0.00,,---,0.00,VWS V14.01,2013-06-13 09:59:00,
2013-06-13 06:04:00,58.1,51.6,29.00,East,90,0.0,0.0,79,0.00,,---,0.00,VWS V14.01,2013-06-13 10:04:00,
2013-06-13 06:09:00,58.1,51.6,29.00,East,90,0.0,0.0,79,0.00,,---,0.00,VWS V14.01,2013-06-13 10:09:00,
2013-06-13 06:14:00,58.1,51.6,29.00,East,90,0.0,0.0,79,0.00,,---,0.00,VWS V14.01,2013-06-13 10:14:00,
2013-06-13 06:19:00,58.1,51.6,28.97,East,90,0.0,0.0,79,0.00,,---,0.00,VWS V14.01,2013-06-13 10:19:00,
2013-06-13 06:24:00,58.3,51.8,28.97,East,90,0.0,0.0,79,0.00,,---,0.00,VWS V14.01,2013-06-13 10:24:00,
2013-06-13 06:29:00,58.3,51.8,28.97,East,90,0.0,0.0,79,0.00,,---,0.00,VWS V14.01,2013-06-13 10:29:00,
2013-06-13 06:34:00,58.5,52.0,28.97,East,90,0.0,0.0,79,0.00,,---,0.00,VWS V14.01,2013-06-13 10:34:00,
2013-06-13 06:39:00,58.5,52.0,28.97,East,90,0.0,0.0,79,0.00,,---,0.00,VWS V14.01,2013-06-13 10:39:00,
2013-06-13 06:44:00,58.5,52.0,28.97,East,90,0.0,0.0,79,0.00,,---,0.00,VWS V14.01,2013-06-13 10:44:00,
2013-06-13 06:49:00,58.5,52.0,28.97,East,90,0.0,0.0,79,0.00,,---,0.00,VWS V14.01,2013-06-13 10:49:00,
2013-06-13 06:54:00,58.6,52.2,28.97,East,90,0.0,0.0,79,0.00,,---,0.00,VWS V14.01,2013-06-13 10:54:00,
2013-06-13 06:59:00,58.6,51.8,28.97,East,90,0.0,0.0,78,0.00,,---,0.00,VWS V14.01,2013-06-13 10:59:00,
2013-06-13 07:04:00,58.6,51.8,28.97,East,90,0.0,0.0,78,0.00,,---,0.00,VWS V14.01,2013-06-13 11:04:00,
2013-06-13 07:09:00,58.6,51.8,28.97,East,90,0.0,0.0,78,0.00,,---,0.00,VWS V14.01,2013-06-13 11:09:00,
2013-06-13 07:14:00,58.6,51.8,28.97,East,90,0.0,0.0,78,0.00,,---,0.00,VWS V14.01,2013-06-13 11:14:00,
2013-06-13 07:19:00,58.6,51.5,28.97,East,90,0.0,0.0,77,0.00,,---,0.00,VWS V14.01,2013-06-13 11:19:00,
2013-06-13 07:24:00,58.5,51.3,28.97,East,90,0.0,0.0,77,0.00,,---,0.00,VWS V14.01,2013-06-13 11:24:00,
2013-06-13 07:29:00,58.3,51.1,28.97,East,90,0.0,0.0,77,0.00,,---,0.00,VWS V14.01,2013-06-13 11:29:00,
2013-06-13 07:34:00,58.3,51.1,28.94,North,0,0.0,0.0,77,0.00,,---,0.00,VWS V14.01,2013-06-13 11:34:00,
2013-06-13 07:39:00,58.1,50.9,28.94,North,0,0.0,0.0,77,0.00,,---,0.00,VWS V14.01,2013-06-13 11:39:00,
2013-06-13 07:44:00,58.1,50.9,28.94,North,0,0.0,0.0,77,0.00,,---,0.00,VWS V14.01,2013-06-13 11:44:00,
2013-06-13 07:49:00,58.1,50.9,28.94,East,89,2.7,3.1,77,0.00,,---,0.00,VWS V14.01,2013-06-13 11:49:00,
2013-06-13 07:54:00,58.1,51.3,28.94,East,89,0.0,0.0,78,0.00,,---,0.00,VWS V14.01,2013-06-13 11:54:00,
2013-06-13 07:59:00,58.1,51.3,28.94,East,89,0.0,0.0,78,0.00,,---,0.00,VWS V14.01,2013-06-13 11:59:00,
2013-06-13 08:04:00,58.3,51.5,28.94,ESE,105,0.0,0.0,78,0.00,,---,0.00,VWS V14.01,2013-06-13 12:04:00,
2013-06-13 08:09:00,58.5,51.6,28.94,ESE,116,2.7,4.0,78,0.00,,---,0.00,VWS V14.01,2013-06-13 12:09:00,
2013-06-13 08:14:00,58.5,52.0,28.94,SSE,155,0.0,0.0,79,0.00,,---,0.00,VWS V14.01,2013-06-13 12:14:00,
2013-06-13 08:19:00,58.6,52.2,28.94,SSE,147,0.0,0.0,79,0.00,,---,0.00,VWS V14.01,2013-06-13 12:19:00,
2013-06-13 08:24:00,58.6,52.5,28.94,SSE,160,3.1,3.6,80,0.00,,---,0.00,VWS V14.01,2013-06-13 12:24:00,
2013-06-13 08:29:00,58.6,52.8,28.94,SSE,151,0.0,0.0,81,0.00,,---,0.00,VWS V14.01,2013-06-13 12:29:00,
2013-06-13 08:34:00,58.8,53.0,28.94,SSE,161,3.1,4.5,81,0.00,,---,0.00,VWS V14.01,2013-06-13 12:34:00,
2013-06-13 08:39:00,58.8,53.3,28.94,SSE,161,0.0,2.7,82,0.00,,---,0.00,VWS V14.01,2013-06-13 12:39:00,
2013-06-13 08:44:00,58.8,53.3,28.94,SSE,160,0.0,0.0,82,0.00,,---,0.00,VWS V14.01,2013-06-13 12:44:00,
2013-06-13 08:49:00,58.8,53.3,28.94,SSE,154,0.0,3.6,82,0.00,,---,0.00,VWS V14.01,2013-06-13 12:49:00,
2013-06-13 08:54:00,59.0,53.8,28.94,East,83,0.0,0.0,83,0.00,,---,0.00,VWS V14.01,2013-06-13 12:54:00,
2013-06-13 08:59:00,59.0,53.8,28.94,SSE,164,0.0,0.0,83,0.04,,---,0.04,VWS V14.01,2013-06-13 12:59:00,
2013-06-13 09:04:00,59.0,54.2,28.94,SSE,164,0.0,0.0,84,0.04,,---,0.04,VWS V14.01,2013-06-13 13:04:00,
2013-06-13 09:09:00,59.0,54.2,28.94,ENE,73,0.0,0.0,84,0.04,,---,0.04,VWS V14.01,2013-06-13 13:09:00,
2013-06-13 09:14:00,59.0,54.5,28.94,ESE,104,0.0,0.0,85,0.08,,---,0.08,VWS V14.01,2013-06-13 13:14:00,
2013-06-13 09:19:00,58.8,54.3,28.94,SSE,160,0.0,0.0,85,0.12,,---,0.12,VWS V14.01,2013-06-13 13:19:00,
2013-06-13 09:24:00,58.8,54.3,28.94,SW,218,0.0,0.0,85,0.12,,---,0.12,VWS V14.01,2013-06-13 13:24:00,
2013-06-13 09:29:00,58.6,54.2,28.94,SSE,167,0.0,0.0,85,0.12,,---,0.12,VWS V14.01,2013-06-13 13:29:00,
2013-06-13 09:34:00,58.6,54.5,28.91,SSE,159,0.0,0.0,86,0.12,,---,0.12,VWS V14.01,2013-06-13 13:34:00,
2013-06-13 09:39:00,58.6,54.5,28.91,South,191,4.9,4.9,86,0.12,,---,0.12,VWS V14.01,2013-06-13 13:39:00,
2013-06-13 09:44:00,58.6,54.8,28.91,South,188,0.0,0.0,87,0.12,,---,0.12,VWS V14.01,2013-06-13 13:44:00,
2013-06-13 09:49:00,58.6,55.1,28.94,SSE,147,0.0,4.9,88,0.12,,---,0.12,VWS V14.01,2013-06-13 13:49:00,
2013-06-13 09:54:00,58.6,55.1,28.94,SE,133,0.0,0.0,88,0.12,,---,0.12,VWS V14.01,2013-06-13 13:54:00,
2013-06-13 09:59:00,58.6,55.1,28.94,SE,139,0.0,2.7,88,0.12,,---,0.16,VWS V14.01,2013-06-13 13:59:00,
2013-06-13 10:04:00,58.6,55.4,28.91,SSE,161,2.7,4.5,89,0.12,,---,0.16,VWS V14.01,2013-06-13 14:04:00,
2013-06-13 10:09:00,58.5,55.2,28.91,SSE,153,0.0,3.6,89,0.12,,---,0.16,VWS V14.01,2013-06-13 14:09:00,
2013-06-13 10:14:00,58.3,55.1,28.91,NNW,338,0.0,3.1,89,0.12,,---,0.20,VWS V14.01,2013-06-13 14:14:00,
2013-06-13 10:19:00,58.1,55.2,28.91,South,171,0.0,3.6,90,0.12,,---,0.24,VWS V14.01,2013-06-13 14:19:00,
2013-06-13 10:24:00,58.3,55.4,28.91,SSE,159,0.0,4.0,90,0.12,,---,0.24,VWS V14.01,2013-06-13 14:24:00,
2013-06-13 10:29:00,58.1,55.5,28.91,ENE,76,0.0,3.1,91,0.12,,---,0.24,VWS V14.01,2013-06-13 14:29:00,
2013-06-13 10:34:00,58.1,55.5,28.91,East,86,0.0,0.0,91,0.16,,---,0.28,VWS V14.01,2013-06-13 14:34:00,
2013-06-13 10:39:00,57.9,55.6,28.91,East,84,3.1,4.0,92,0.16,,---,0.28,VWS V14.01,2013-06-13 14:39:00,
2013-06-13 10:44:00,57.9,55.9,28.91,South,184,0.0,0.0,93,0.16,,---,0.28,VWS V14.01,2013-06-13 14:44:00,
2013-06-13 10:49:00,57.9,55.9,28.91,SSE,152,0.0,0.0,93,0.16,,---,0.28,VWS V14.01,2013-06-13 14:49:00,
2013-06-13 10:54:00,58.1,56.4,28.91,ENE,73,0.0,3.6,94,0.16,,---,0.28,VWS V14.01,2013-06-13 14:54:00,
2013-06-13 10:59:00,57.9,56.2,28.91,SE,139,2.7,4.5,94,0.16,,---,0.31,VWS V14.01,2013-06-13 14:59:00,
2013-06-13 11:04:00,58.1,56.4,28.91,ENE,72,4.5,4.9,94,0.16,,---,0.31,VWS V14.01,2013-06-13 15:04:00,
2013-06-13 11:09:00,58.1,56.4,28.91,South,169,4.9,5.8,94,0.16,,---,0.31,VWS V14.01,2013-06-13 15:09:00,
2013-06-13 11:14:00,57.9,56.5,28.91,ESE,122,3.1,6.9,95,0.12,,---,0.31,VWS V14.01,2013-06-13 15:14:00,
2013-06-13 11:19:00,57.9,56.5,28.88,ESE,108,4.5,4.5,95,0.12,,---,0.31,VWS V14.01,2013-06-13 15:19:00,
2013-06-13 11:24:00,57.9,56.5,28.88,ESE,111,2.7,4.0,95,0.08,,---,0.31,VWS V14.01,2013-06-13 15:24:00,
2013-06-13 11:29:00,57.9,56.8,28.88,ENE,76,5.4,5.4,96,0.08,,---,0.31,VWS V14.01,2013-06-13 15:29:00,
2013-06-13 11:34:00,57.7,56.6,28.88,SE,127,0.0,4.0,96,0.08,,---,0.35,VWS V14.01,2013-06-13 15:34:00,
2013-06-13 11:39:00,57.9,57.1,28.88,SE,128,3.6,6.3,97,0.08,,---,0.35,VWS V14.01,2013-06-13 15:39:00,
2013-06-13 11:44:00,57.9,57.1,28.88,ESE,107,4.9,4.9,97,0.08,,---,0.35,VWS V14.01,2013-06-13 15:44:00,
2013-06-13 11:49:00,57.9,57.1,28.88,South,182,6.3,6.7,97,0.08,,---,0.35,VWS V14.01,2013-06-13 15:49:00,
2013-06-13 11:54:00,57.7,56.9,28.88,SSE,165,4.0,4.0,97,0.12,,---,0.39,VWS V14.01,2013-06-13 15:54:00,
2013-06-13 11:59:00,57.6,56.7,28.88,SSE,150,0.0,5.8,97,0.08,,---,0.39,VWS V14.01,2013-06-13 15:59:00,
2013-06-13 12:04:00,57.6,56.7,28.88,SE,136,0.0,3.6,97,0.08,,---,0.39,VWS V14.01,2013-06-13 16:04:00,
2013-06-13 12:09:00,57.7,56.9,28.88,SSE,161,6.7,8.7,97,0.12,,---,0.43,VWS V14.01,2013-06-13 16:09:00,
2013-06-13 12:14:00,57.7,56.9,28.88,ESE,109,4.5,8.3,97,0.16,,---,0.47,VWS V14.01,2013-06-13 16:14:00,
2013-06-13 12:19:00,57.7,56.9,28.85,NE,53,0.0,0.0,97,0.16,,---,0.47,VWS V14.01,2013-06-13 16:19:00,
2013-06-13 12:24:00,57.6,56.7,28.85,South,189,0.0,6.7,97,0.16,,---,0.47,VWS V14.01,2013-06-13 16:24:00,
2013-06-13 12:30:00,57.7,56.9,28.88,East,96,5.8,10.1,97,0.20,,---,0.51,VWS V14.01,2013-06-13 16:30:00,
2013-06-13 12:35:00,57.9,57.1,28.88,SE,131,3.1,5.8,97,0.16,,---,0.51,VWS V14.01,2013-06-13 16:35:00,
2013-06-13 12:40:00,57.9,57.1,28.88,SSE,147,4.5,6.3,97,0.16,,---,0.51,VWS V14.01,2013-06-13 16:40:00,
2013-06-13 12:45:00,58.1,57.3,28.85,South,182,7.4,7.4,97,0.16,,---,0.51,VWS V14.01,2013-06-13 16:45:00,
2013-06-13 12:50:00,58.1,57.3,28.85,SW,224,5.4,7.8,97,0.16,,---,0.51,VWS V14.01,2013-06-13 16:50:00,
2013-06-13 12:55:00,57.9,57.1,28.85,ESE,107,3.1,8.3,97,0.12,,---,0.51,VWS V14.01,2013-06-13 16:55:00,
2013-06-13 13:00:00,57.9,57.1,28.85,SSE,167,4.9,10.1,97,0.12,,---,0.51,VWS V14.01,2013-06-13 17:00:00,
2013-06-13 13:05:00,57.9,57.1,28.85,SSE,159,4.5,6.9,97,0.12,,---,0.51,VWS V14.01,2013-06-13 17:05:00,
2013-06-13 13:10:00,58.1,57.3,28.85,WSW,246,3.6,6.9,97,0.08,,---,0.51,VWS V14.01,2013-06-13 17:10:00,
2013-06-13 13:15:00,58.3,57.4,28.82,East,84,4.0,5.4,97,0.04,,---,0.51,VWS V14.01,2013-06-13 17:15:00,
2013-06-13 13:20:00,58.6,57.8,28.82,SSE,156,5.4,6.7,97,0.04,,---,0.51,VWS V14.01,2013-06-13 17:20:00,
2013-06-13 13:25:00,58.6,57.8,28.82,SSE,156,4.9,9.2,97,0.04,,---,0.51,VWS V14.01,2013-06-13 17:25:00,
2013-06-13 13:30:00,58.8,58.0,28.82,SSE,150,5.4,5.8,97,0.00,,---,0.51,VWS V14.01,2013-06-13 17:30:00,
2013-06-13 13:35:00,58.6,57.8,28.82,ESE,103,3.6,5.8,97,0.00,,---,0.51,VWS V14.01,2013-06-13 17:35:00,
2013-06-13 13:40:00,58.5,57.6,28.82,South,178,3.1,5.4,97,0.00,,---,0.51,VWS V14.01,2013-06-13 17:40:00,
2013-06-13 13:45:00,58.6,57.8,28.82,SSE,155,4.5,5.8,97,0.00,,---,0.51,VWS V14.01,2013-06-13 17:45:00,
2013-06-13 13:50:00,58.6,57.8,28.82,SSW,201,3.6,6.3,97,0.00,,---,0.51,VWS V14.01,2013-06-13 17:50:00,
2013-06-13 13:55:00,58.5,57.6,28.82,South,178,6.3,6.9,97,0.00,,---,0.51,VWS V14.01,2013-06-13 17:55:00,
2013-06-13 14:00:00,58.5,57.6,28.82,South,177,8.7,8.7,97,0.00,,---,0.51,VWS V14.01,2013-06-13 18:00:00,
2013-06-13 14:05:00,58.3,57.4,28.82,South,178,2.7,6.3,97,0.00,,---,0.51,VWS V14.01,2013-06-13 18:05:00,
2013-06-13 14:10:00,58.3,57.4,28.82,ESE,117,4.9,10.5,97,0.00,,---,0.51,VWS V14.01,2013-06-13 18:10:00,
2013-06-13 14:15:00,58.3,57.4,28.82,SE,143,4.9,6.3,97,0.00,,---,0.51,VWS V14.01,2013-06-13 18:15:00,
2013-06-13 14:20:00,58.3,57.4,28.82,ESE,123,4.5,6.7,97,0.00,,---,0.51,VWS V14.01,2013-06-13 18:20:00,
2013-06-13 14:25:00,58.1,57.3,28.82,South,176,4.0,6.7,97,0.00,,---,0.51,VWS V14.01,2013-06-13 18:25:00,
2013-06-13 14:30:00,58.1,57.3,28.82,SSE,156,2.7,4.5,97,0.00,,---,0.51,VWS V14.01,2013-06-13 18:30:00,
2013-06-13 14:35:00,58.1,57.3,28.82,SSE,161,3.6,5.8,97,0.00,,---,0.51,VWS V14.01,2013-06-13 18:35:00,
2013-06-13 14:40:00,57.9,57.1,28.82,South,182,3.6,6.7,97,0.00,,---,0.51,VWS V14.01,2013-06-13 18:40:00,
2013-06-13 14:45:00,58.1,57.3,28.82,SW,220,0.0,4.9,97,0.00,,---,0.51,VWS V14.01,2013-06-13 18:45:00,
2013-06-13 14:50:00,57.9,57.1,28.82,SSE,156,4.0,6.3,97,0.00,,---,0.51,VWS V14.01,2013-06-13 18:50:00,
2013-06-13 14:55:00,58.1,57.3,28.82,ESE,115,4.9,6.3,97,0.00,,---,0.51,VWS V14.01,2013-06-13 18:55:00,
2013-06-13 15:00:00,57.9,57.1,28.82,SE,139,4.0,6.7,97,0.00,,---,0.51,VWS V14.01,2013-06-13 19:00:00,
2013-06-13 15:05:00,57.9,57.1,28.82,SSE,163,4.0,6.9,97,0.00,,---,0.51,VWS V14.01,2013-06-13 19:05:00,
2013-06-13 15:10:00,57.9,57.1,28.82,SE,142,2.7,6.3,97,0.00,,---,0.51,VWS V14.01,2013-06-13 19:10:00,
2013-06-13 15:15:00,58.1,57.3,28.79,East,98,0.0,5.8,97,0.00,,---,0.51,VWS V14.01,2013-06-13 19:15:00,
2013-06-13 15:20:00,58.1,57.3,28.79,WSW,237,5.8,6.3,97,0.00,,---,0.51,VWS V14.01,2013-06-13 19:20:00,
2013-06-13 15:25:00,58.1,57.3,28.79,ENE,66,6.3,6.7,97,0.00,,---,0.51,VWS V14.01,2013-06-13 19:25:00,
2013-06-13 15:30:00,58.1,57.3,28.79,ESE,119,4.0,5.4,97,0.00,,---,0.51,VWS V14.01,2013-06-13 19:30:00,
2013-06-13 15:35:00,58.1,57.3,28.79,South,178,5.4,12.1,97,0.00,,---,0.51,VWS V14.01,2013-06-13 19:35:00,
2013-06-13 15:40:00,58.1,57.3,28.79,ENE,72,6.7,9.2,97,0.00,,---,0.51,VWS V14.01,2013-06-13 19:40:00,
2013-06-13 15:45:00,58.1,57.3,28.79,South,184,3.1,6.3,97,0.00,,---,0.51,VWS V14.01,2013-06-13 19:45:00,
2013-06-13 15:50:00,58.1,57.3,28.79,SE,145,4.5,5.4,97,0.00,,---,0.51,VWS V14.01,2013-06-13 19:50:00,
2013-06-13 15:55:00,58.1,57.3,28.79,SW,232,4.9,6.7,97,0.00,,---,0.51,VWS V14.01,2013-06-13 19:55:00,
2013-06-13 16:00:00,58.1,57.3,28.76,ESE,117,4.5,8.7,97,0.00,,---,0.51,VWS V14.01,2013-06-13 20:00:00,
2013-06-13 16:05:00,58.1,57.3,28.76,SSE,156,2.7,6.7,97,0.00,,---,0.51,VWS V14.01,2013-06-13 20:05:00,
2013-06-13 16:10:00,58.1,57.0,28.76,South,174,4.0,6.7,96,0.00,,---,0.51,VWS V14.01,2013-06-13 20:10:00,
2013-06-13 16:15:00,58.1,57.0,28.76,SSE,168,5.4,6.7,96,0.00,,---,0.51,VWS V14.01,2013-06-13 20:15:00,
2013-06-13 16:20:00,58.1,57.0,28.76,ESE,113,5.4,6.7,96,0.00,,---,0.51,VWS V14.01,2013-06-13 20:20:00,
2013-06-13 16:25:00,58.1,57.0,28.76,ESE,106,3.6,5.4,96,0.00,,---,0.51,VWS V14.01,2013-06-13 20:25:00,
2013-06-13 16:30:00,57.9,56.8,28.76,East,96,4.5,4.5,96,0.00,,---,0.51,VWS V14.01,2013-06-13 20:30:00,
2013-06-13 16:35:00,57.9,56.8,28.76,ENE,67,4.0,4.0,96,0.00,,---,0.51,VWS V14.01,2013-06-13 20:35:00,
2013-06-13 16:40:00,57.9,56.8,28.76,SSW,213,5.4,5.4,96,0.00,,---,0.51,VWS V14.01,2013-06-13 20:40:00,
2013-06-13 16:45:00,57.9,56.8,28.76,East,98,0.0,0.0,96,0.00,,---,0.51,VWS V14.01,2013-06-13 20:45:00,
2013-06-13 16:50:00,57.7,56.6,28.76,SE,145,3.1,5.4,96,0.00,,---,0.51,VWS V14.01,2013-06-13 20:50:00,
2013-06-13 16:55:00,57.7,56.9,28.76,ENE,74,5.8,6.9,97,0.00,,---,0.51,VWS V14.01,2013-06-13 20:55:00,
2013-06-13 17:00:00,57.6,56.7,28.76,South,187,4.5,6.9,97,0.00,,---,0.51,VWS V14.01,2013-06-13 21:00:00,
2013-06-13 17:05:00,57.6,56.7,28.76,South,174,5.4,5.4,97,0.00,,---,0.51,VWS V14.01,2013-06-13 21:05:00,
2013-06-13 17:10:00,57.6,56.7,28.76,East,80,2.7,7.4,97,0.00,,---,0.51,VWS V14.01,2013-06-13 21:10:00,
2013-06-13 17:15:00,57.6,56.7,28.76,ESE,107,3.1,6.3,97,0.00,,---,0.51,VWS V14.01,2013-06-13 21:15:00,
2013-06-13 17:20:00,57.6,56.7,28.76,ESE,107,5.4,5.4,97,0.00,,---,0.51,VWS V14.01,2013-06-13 21:20:00,
2013-06-13 17:25:00,57.6,56.7,28.76,SE,141,5.4,7.4,97,0.00,,---,0.51,VWS V14.01,2013-06-13 21:25:00,
2013-06-13 17:30:00,57.4,56.5,28.73,NE,47,4.0,5.8,97,0.04,,---,0.55,VWS V14.01,2013-06-13 21:30:00,
2013-06-13 17:35:00,57.4,56.5,28.73,NE,51,3.1,5.4,97,0.04,,---,0.55,VWS V14.01,2013-06-13 21:35:00,
2013-06-13 17:40:00,57.4,56.5,28.73,ESE,113,3.6,4.5,97,0.04,,---,0.55,VWS V14.01,2013-06-13 21:40:00,
2013-06-13 17:45:00,57.4,56.5,28.73,South,177,7.4,8.7,97,0.04,,---,0.55,VWS V14.01,2013-06-13 21:45:00,
2013-06-13 17:50:00,57.4,56.5,28.73,SSE,153,4.0,6.7,97,0.04,,---,0.55,VWS V14.01,2013-06-13 21:50:00,
2013-06-13 17:55:00,57.2,56.4,28.73,SSE,162,3.6,7.8,97,0.08,,---,0.59,VWS V14.01,2013-06-13 21:55:00,
2013-06-13 18:00:00,57.2,56.4,28.73,ENE,69,5.4,7.8,97,0.08,,---,0.59,VWS V14.01,2013-06-13 22:00:00,
2013-06-13 18:05:00,57.2,56.4,28.73,South,180,6.9,7.4,97,0.08,,---,0.59,VWS V14.01,2013-06-13 22:05:00,
2013-06-13 18:10:00,57.2,56.4,28.73,SSW,199,2.7,4.5,97,0.08,,---,0.59,VWS V14.01,2013-06-13 22:10:00,
2013-06-13 18:15:00,57.0,56.2,28.73,ESE,107,3.1,5.4,97,0.08,,---,0.59,VWS V14.01,2013-06-13 22:15:00,
2013-06-13 18:20:00,57.0,56.2,28.73,East,87,4.0,7.8,97,0.12,,---,0.63,VWS V14.01,2013-06-13 22:20:00,
2013-06-13 18:25:00,57.0,56.2,28.73,ESE,120,4.0,5.4,97,0.12,,---,0.63,VWS V14.01,2013-06-13 22:25:00,
2013-06-13 18:30:00,57.0,56.2,28.73,East,99,4.9,7.4,97,0.16,,---,0.71,VWS V14.01,2013-06-13 22:30:00,
2013-06-13 18:35:00,56.8,56.0,28.73,East,96,9.2,9.2,97,0.20,,---,0.75,VWS V14.01,2013-06-13 22:35:00,
2013-06-13 18:40:00,56.8,56.0,28.73,East,80,3.6,6.3,97,0.20,,---,0.75,VWS V14.01,2013-06-13 22:40:00,
2013-06-13 18:45:00,56.8,56.0,28.73,ENE,60,3.6,5.8,97,0.20,,---,0.75,VWS V14.01,2013-06-13 22:45:00,
2013-06-13 18:50:00,56.8,56.0,28.73,SE,137,4.5,7.8,97,0.20,,---,0.75,VWS V14.01,2013-06-13 22:50:00,
2013-06-13 18:55:00,56.7,55.8,28.73,East,93,0.0,3.6,97,0.16,,---,0.75,VWS V14.01,2013-06-13 22:55:00,
2013-06-13 19:00:00,56.8,56.0,28.73,SE,129,6.9,7.4,97,0.20,,---,0.79,VWS V14.01,2013-06-13 23:00:00,
2013-06-13 19:05:00,56.7,55.8,28.73,SSE,158,0.0,4.0,97,0.20,,---,0.79,VWS V14.01,2013-06-13 23:05:00,
2013-06-13 19:10:00,56.7,55.8,28.73,NNE,26,0.0,5.8,97,0.24,,---,0.83,VWS V14.01,2013-06-13 23:10:00,
2013-06-13 19:15:00,56.7,55.8,28.73,ENE,76,4.5,6.7,97,0.24,,---,0.83,VWS V14.01,2013-06-13 23:15:00,
2013-06-13 19:20:00,56.5,55.6,28.73,SE,131,3.1,9.6,97,0.24,,---,0.87,VWS V14.01,2013-06-13 23:20:00,
2013-06-13 19:25:00,56.5,55.6,28.73,SE,128,2.7,6.9,97,0.28,,---,0.91,VWS V14.01,2013-06-13 23:25:00,
2013-06-13 19:30:00,56.3,55.5,28.73,NNE,12,2.7,4.5,97,0.20,,---,0.91,VWS V14.01,2013-06-13 23:30:00,
2013-06-13 19:35:00,56.3,55.5,28.73,SW,236,2.7,8.3,97,0.20,,---,0.94,VWS V14.01,2013-06-13 23:35:00,
2013-06-13 19:40:00,56.1,55.3,28.73,SE,125,7.8,7.8,97,0.20,,---,0.94,VWS V14.01,2013-06-13 23:40:00,
2013-06-13 19:45:00,55.9,55.1,28.73,SE,146,8.7,10.1,97,0.24,,---,0.98,VWS V14.01,2013-06-13 23:45:00,
2013-06-13 19:50:00,55.9,55.1,28.73,ENE,63,3.1,8.7,97,0.24,,---,0.98,VWS V14.01,2013-06-13 23:50:00,
2013-06-13 19:55:00,55.9,55.1,28.73,South,181,6.9,9.2,97,0.24,,---,0.98,VWS V14.01,2013-06-13 23:55:00,
2013-06-13 20:00:00,55.8,54.9,28.73,ENE,76,0.0,4.9,97,0.20,,---,0.98,VWS V14.01,2013-06-14 00:00:00,
2013-06-13 20:05:00,55.8,54.9,28.73,SE,145,7.4,8.3,97,0.24,,---,1.02,VWS V14.01,2013-06-14 00:05:00,
2013-06-13 20:10:00,55.8,54.9,28.73,NNW,329,7.4,11.2,97,0.20,,---,1.02,VWS V14.01,2013-06-14 00:10:00,
2013-06-13 20:15:00,55.6,54.8,28.73,WNW,287,3.6,9.6,97,0.24,,---,1.06,VWS V14.01,2013-06-14 00:15:00,
2013-06-13 20:20:00,55.6,54.8,28.73,ESE,117,0.0,10.5,97,0.24,,---,1.10,VWS V14.01,2013-06-14 00:20:00,
2013-06-13 20:25:00,55.6,54.8,28.73,East,81,6.7,6.7,97,0.24,,---,1.14,VWS V14.01,2013-06-14 00:25:00,
2013-06-13 20:30:00,55.4,54.6,28.76,SSW,212,0.0,4.0,97,0.28,,---,1.18,VWS V14.01,2013-06-14 00:30:00,
2013-06-13 20:35:00,55.4,54.6,28.76,North,3,0.0,0.0,97,0.28,,---,1.18,VWS V14.01,2013-06-14 00:35:00,
2013-06-13 20:40:00,55.6,54.8,28.76,NE,52,0.0,3.1,97,0.28,,---,1.22,VWS V14.01,2013-06-14 00:40:00,
2013-06-13 20:45:00,55.4,54.6,28.76,ESE,108,0.0,3.1,97,0.28,,---,1.26,VWS V14.01,2013-06-14 00:45:00,
2013-06-13 20:50:00,55.4,54.6,28.76,SSE,156,4.0,9.2,97,0.31,,---,1.30,VWS V14.01,2013-06-14 00:50:00,
2013-06-13 20:55:00,55.2,54.4,28.76,ESE,119,2.7,6.9,97,0.31,,---,1.30,VWS V14.01,2013-06-14 00:55:00,
2013-06-13 21:00:00,55.0,54.2,28.73,WNW,286,4.9,8.3,97,0.31,,---,1.30,VWS V14.01,2013-06-14 01:00:00,
2013-06-13 21:05:00,55.0,54.2,28.73,ENE,63,2.7,5.4,97,0.28,,---,1.30,VWS V14.01,2013-06-14 01:05:00,
2013-06-13 21:11:00,55.0,54.2,28.73,East,101,0.0,6.9,97,0.28,,---,1.30,VWS V14.01,2013-06-14 01:11:00,
2013-06-13 21:16:00,55.2,54.4,28.73,South,174,0.0,11.0,97,0.24,,---,1.30,VWS V14.01,2013-06-14 01:16:00,
2013-06-13 21:21:00,55.2,54.4,28.73,SE,138,4.5,4.9,97,0.20,,---,1.30,VWS V14.01,2013-06-14 01:21:00,
2013-06-13 21:26:00,55.0,54.2,28.73,WSW,238,2.7,5.8,97,0.16,,---,1.30,VWS V14.01,2013-06-14 01:26:00,
2013-06-13 21:31:00,55.0,54.2,28.73,ESE,113,3.1,4.9,97,0.12,,---,1.30,VWS V14.01,2013-06-14 01:31:00,
2013-06-13 21:36:00,55.0,54.2,28.73,SW,214,2.7,5.8,97,0.12,,---,1.30,VWS V14.01,2013-06-14 01:36:00,
2013-06-13 21:41:00,54.9,54.0,28.73,SW,232,4.0,6.3,97,0.08,,---,1.30,VWS V14.01,2013-06-14 01:41:00,
2013-06-13 21:46:00,54.9,54.0,28.76,SE,124,9.2,9.2,97,0.08,,---,1.34,VWS V14.01,2013-06-14 01:46:00,
2013-06-13 21:51:00,54.9,54.0,28.76,SE,125,3.1,3.1,97,0.04,,---,1.34,VWS V14.01,2013-06-14 01:51:00,
2013-06-13 21:56:00,54.9,54.0,28.76,West,281,4.0,6.7,97,0.04,,---,1.34,VWS V14.01,2013-06-14 01:56:00,
2013-06-13 22:01:00,54.7,53.8,28.76,SSE,148,3.1,9.2,97,0.04,,---,1.34,VWS V14.01,2013-06-14 02:01:00,
2013-06-13 22:06:00,54.5,53.7,28.76,South,174,3.6,11.2,97,0.04,,---,1.34,VWS V14.01,2013-06-14 02:06:00,
2013-06-13 22:11:00,54.5,53.7,28.76,SSE,160,0.0,11.0,97,0.04,,---,1.34,VWS V14.01,2013-06-14 02:11:00,
2013-06-13 22:16:00,54.3,53.5,28.76,South,184,3.1,4.5,97,0.04,,---,1.34,VWS V14.01,2013-06-14 02:16:00,
2013-06-13 22:21:00,54.3,53.5,28.76,ENE,64,6.9,6.9,97,0.04,,---,1.34,VWS V14.01,2013-06-14 02:21:00,
2013-06-13 22:26:00,54.1,53.3,28.76,NE,56,5.8,7.4,97,0.04,,---,1.34,VWS V14.01,2013-06-14 02:26:00,
2013-06-13 22:31:00,54.0,53.1,28.76,East,101,4.9,10.5,97,0.04,,---,1.34,VWS V14.01,2013-06-14 02:31:00,
2013-06-13 22:36:00,54.0,53.1,28.76,SSE,149,8.3,10.5,97,0.04,,---,1.34,VWS V14.01,2013-06-14 02:36:00,
2013-06-13 22:41:00,53.8,53.0,28.76,ESE,113,4.0,5.4,97,0.04,,---,1.34,VWS V14.01,2013-06-14 02:41:00,
2013-06-13 22:46:00,53.6,52.8,28.76,SSW,212,6.7,7.8,97,0.00,,---,1.34,VWS V14.01,2013-06-14 02:46:00,
2013-06-13 22:51:00,53.6,52.8,28.76,SW,217,0.0,5.8,97,0.00,,---,1.34,VWS V14.01,2013-06-14 02:51:00,
2013-06-13 22:56:00,53.6,52.8,28.76,SE,127,11.0,11.0,97,0.00,,---,1.34,VWS V14.01,2013-06-14 02:56:00,
2013-06-13 23:01:00,53.4,52.6,28.73,ENE,64,0.0,6.7,97,0.04,,---,1.38,VWS V14.01,2013-06-14 03:01:00,
2013-06-13 23:06:00,53.6,52.8,28.73,SSE,167,4.0,5.8,97,0.04,,---,1.38,VWS V14.01,2013-06-14 03:06:00,
2013-06-13 23:11:00,53.4,52.6,28.73,SE,130,3.6,12.5,97,0.04,,---,1.38,VWS V14.01,2013-06-14 03:11:00,
2013-06-13 23:16:00,53.4,52.6,28.76,NNW,340,0.0,0.0,97,0.04,,---,1.38,VWS V14.01,2013-06-14 03:16:00,
2013-06-13 23:21:00,53.4,52.6,28.76,ESE,115,0.0,4.5,97,0.04,,---,1.38,VWS V14.01,2013-06-14 03:21:00,
2013-06-13 23:26:00,53.4,52.6,28.76,North,0,0.0,3.6,97,0.04,,---,1.38,VWS V14.01,2013-06-14 03:26:00,
2013-06-13 23:31:00,53.2,52.4,28.73,North,5,3.1,3.6,97,0.08,,---,1.42,VWS V14.01,2013-06-14 03:31:00,
2013-06-13 23:36:00,53.4,52.6,28.73,North,351,0.0,3.6,97,0.08,,---,1.42,VWS V14.01,2013-06-14 03:36:00,
2013-06-13 23:41:00,53.2,52.4,28.73,NNE,13,0.0,4.5,97,0.08,,---,1.42,VWS V14.01,2013-06-14 03:41:00,
2013-06-13 23:46:00,53.2,52.4,28.76,North,0,0.0,3.1,97,0.08,,---,1.42,VWS V14.01,2013-06-14 03:46:00,
2013-06-13 23:51:00,53.2,52.4,28.76,East,88,2.7,5.8,97,0.08,,---,1.42,VWS V14.01,2013-06-14 03:51:00,
2013-06-13 23:56:00,53.2,52.4,28.76,North,351,0.0,0.0,97,0.08,,---,1.42,VWS V14.01,2013-06-14 03:56:00,